FM-6

Last updated on Thu Apr 09 2026 00:02:50 GMT+0000 (Coordinated Universal Time)

1 39360U 13058A 26098.57417312 -.00000017 00000+0 00000+0 0 9990 2 39360 0.0111 206.4110 0003218 332.5453 108.3222 1.00287030 45377
UTC large
Height (km)
Speed (km/s)
/
Latitude / Longitude
Inclination (degrees)
Orbital Period (minutes)
Azimuth
Elevation
Range (km)
Doppler Factor

Next 0 passes for location: London (51.5072 / 0.1276)

Sorry there are no passes over London.